sat.trackr.live / text

‹ back to catalog

STARLINK-5772

NORAD 56024 · 2023-042AQ

PAYLOAD ACTIVE UNKNOWN

§ Identity

Operator
Country
US
Launch date
2023-03-24
Launch site
AFETR
Launch vehicle
Mass (kg)
RCS (m²)

Purposes: comms

External: N2YO · Heavens-Above · Gunter

§ Orbital elements

Epoch: 2026-05-24T23:11:27.678048Z

Period
94.27 min
Inclination
43.0040°
Eccentricity
0.0001084
Mean motion
15.27578260 rev/d
Perigee alt
482.3 km
Apogee alt
483.8 km
Semi-major
6,861.2 km
B*
1.2921e-5
RAAN
334.2275°
Arg perigee
270.1978°
Mean anomaly
89.8750°
Rev number
17,470

§ Raw data

STARLINK-57721 56024U 23042AQ  26144.96629257  .00000094  00000+0  12921-4 0  99922 56024  43.0040 334.2275 0001084 270.1978  89.8750 15.27578260174702

JSON: /api/v1/satellites/56024 · /tle

For live sub-satellite position, see the globe view (requires WebGL).

§ Visibility from observer

Set your observer location to see the next 7 days of passes ≥ 10°. The values pass through the URL so the page stays shareable.

No JS? Fill the form by hand. The geolocation button needs JavaScript.